IK6DEN Weather Reports


time (UTC)temp
C
wind
direction
speed
KPH
gust
KPH
rain 1hr
cm
rain 24hr
cm
rain mn
cm
humidity
%
barometer
mb
20260507230036 13 0.0 0.0 0.00 0.03 0.00 73 1013.7
20260507225032 13 0.0 1.6 0.00 0.03 0.00 73 1014.0
20260507224028 13 225 1.6 3.2 0.00 0.03 0.00 73 1014.0
20260507223023 13 225 1.6 4.8 0.00 0.03 0.00 74 1014.1
20260507222020 13 0.0 0.0 0.00 0.05 0.00 74 1014.0
20260507221115 13 225 0.0 3.2 0.00 0.05 0.00 74 1014.0
20260507220111 13 225 0.0 3.2 0.00 0.05 0.00 74 1013.9
20260507215107 13 0.0 0.0 0.00 0.05 0.05 74 1014.0
20260507214103 14 225 1.6 3.2 0.00 0.05 0.05 73 1013.9
20260507213059 14 225 0.0 3.2 0.00 0.05 0.05 73 1013.9
20260507212114 14 0.0 0.0 0.00 0.05 0.05 73 1013.7
20260507211050 14 0.0 1.6 0.00 0.05 0.05 73 1013.7
20260507210046 14 0.0 0.0 0.00 0.05 0.05 73 1013.7
20260507205041 14 225 0.0 3.2 0.00 0.05 0.05 72 1013.8
20260507204037 14 0.0 3.2 0.00 0.05 0.05 72 1013.8
20260507203032 14 225 0.0 3.2 0.00 0.05 0.05 71 1013.9
20260507202028 14 225 3.2 4.8 0.00 0.05 0.05 71 1014.0
20260507201044 15 225 3.2 4.8 0.00 0.05 0.05 71 1013.9
20260507200040 15 225 1.6 6.4 0.00 0.05 0.05 71 1013.8
20260507195017 15 225 3.2 4.8 0.00 0.05 0.05 71 1013.8
20260507194112 15 225 1.6 6.4 0.00 0.05 0.05 70 1013.7
20260507193107 15 225 1.6 4.8 0.00 0.05 0.05 70 1013.6
20260507192103 15 225 1.6 6.4 0.00 0.05 0.05 70 1013.5
20260507191100 15 225 1.6 6.4 0.00 0.05 0.05 70 1013.5
20260507190054 15 225 3.2 6.4 0.00 0.05 0.05 69 1013.4
20260507185050 15 225 1.6 3.2 0.00 0.05 0.05 68 1013.2
20260507184046 16 225 3.2 6.4 0.00 0.05 0.05 67 1013.1
20260507183042 16 225 1.6 3.2 0.00 0.05 0.05 66 1013.1
20260507182038 16 225 3.2 6.4 0.00 0.05 0.05 65 1012.9
20260507181033 16 225 0.0 3.2 0.00 0.05 0.05 63 1012.8
20260507180029 17 225 4.8 8.0 0.00 0.05 0.05 62 1012.9
20260507175025 17 225 1.6 4.8 0.00 0.05 0.05 56 1012.7
20260507174020 17 225 6.4 9.7 0.00 0.05 0.05 54 1012.5
20260507173016 18 225 8.0 12.9 0.00 0.05 0.05 53 1012.4
20260507172112 18 225 9.7 16.1 0.00 0.05 0.05 52 1012.1
20260507171148 19 225 9.7 16.1 0.00 0.05 0.05 50 1011.9
20260507170104 20 225 12.9 19.3 0.00 0.05 0.05 49 1011.9
20260507165119 20 288 6.4 11.3 0.00 0.05 0.05 43 1011.8
20260507164115 21 293 4.8 9.7 0.00 0.05 0.05 41 1011.7
20260507163050 21 293 3.2 11.3 0.00 0.05 0.05 39 1011.7
20260507162046 21 293 4.8 12.9 0.00 0.05 0.05 38 1011.5
20260507161102 21 293 4.8 8.0 0.00 0.05 0.05 35 1011.6
20260507160039 21 293 6.4 12.9 0.00 0.05 0.05 32 1011.4
20260507155034 21 293 8.0 12.9 0.00 0.05 0.05 30 1011.5
20260507154029 21 293 4.8 8.0 0.00 0.05 0.05 31 1011.6
20260507153026 21 276 6.4 8.0 0.00 0.05 0.05 31 1011.5
20260507152020 21 293 4.8 8.0 0.00 0.05 0.05 31 1011.5
20260507151017 21 293 8.0 11.3 0.00 0.05 0.05 31 1011.6
20260507150112 21 270 8.0 12.9 0.00 0.05 0.05 32 1011.6
20260507145108 21 255 8.0 14.5 0.00 0.05 0.05 32 1011.7
20260507144103 21 270 8.0 12.9 0.00 0.05 0.05 31 1011.8
20260507143059 21 275 6.4 20.9 0.00 0.05 0.05 28 1012.0
20260507142055 21 293 3.2 6.4 0.00 0.05 0.05 25 1012.0
20260507141050 21 293 6.4 9.7 0.00 0.05 0.05 26 1012.0
20260507140126 21 293 6.4 12.9 0.00 0.05 0.05 26 1012.1
20260507135042 21 293 4.8 9.7 0.00 0.05 0.05 25 1012.3
20260507134038 21 293 8.0 12.9 0.00 0.05 0.05 26 1012.3
20260507133033 21 284 14.5 24.1 0.00 0.05 0.05 26 1012.4
20260507132030 21 270 8.0 12.9 0.00 0.05 0.05 29 1012.6
20260507131025 21 270 12.9 17.7 0.00 0.05 0.05 30 1012.6
20260507130021 21 248 6.4 12.9 0.00 0.05 0.05 29 1012.6
20260507125017 21 232 4.8 14.5 0.00 0.05 0.05 30 1012.9
20260507124113 21 225 4.8 6.4 0.00 0.05 0.05 33 1012.8
20260507123108 21 222 6.4 9.7 0.00 0.05 0.05 36 1012.7
20260507122104 20 203 8.0 11.3 0.00 0.05 0.05 34 1012.5
20260507121059 20 218 3.2 9.7 0.00 0.05 0.05 35 1012.8
20260507120055 20 219 4.8 12.9 0.00 0.05 0.05 40 1012.7
20260507115131 20 214 4.8 11.3 0.00 0.05 0.05 40 1012.8
20260507114107 20 203 3.2 16.1 0.00 0.05 0.05 39 1012.9
20260507113103 20 208 8.0 17.7 0.00 0.05 0.05 39 1012.8
20260507112038 20 225 4.8 9.7 0.00 0.10 0.05 42 1012.7
20260507111033 19 233 6.4 9.7 0.00 0.10 0.05 41 1013.0
20260507110049 19 225 4.8 6.4 0.00 0.10 0.05 41 1012.9
20260507105025 19 225 6.4 11.3 0.00 0.10 0.05 41 1013.1
20260507104021 19 245 4.8 6.4 0.00 0.10 0.05 42 1013.1
20260507103016 18 233 6.4 9.7 0.00 0.10 0.05 46 1013.0
20260507102112 18 225 3.2 8.0 0.03 0.10 0.05 49 1013.4
20260507101109 18 241 1.6 4.8 0.03 0.10 0.05 50 1013.5
20260507100104 18 248 3.2 6.4 0.03 0.10 0.05 47 1013.4
20260507095100 18 248 4.8 8.0 0.03 0.10 0.05 47 1013.4
20260507094115 18 243 4.8 6.4 0.03 0.10 0.05 49 1013.4
20260507093051 18 237 6.4 9.7 0.03 0.10 0.05 50 1013.4
20260507092048 18 206 6.4 11.3 0.00 0.05 0.03 50 1013.3
20260507091043 18 203 1.6 4.8 0.00 0.05 0.03 51 1013.5
20260507090038 17 215 4.8 6.4 0.00 0.05 0.03 52 1013.6
20260507085034 17 243 3.2 6.4 0.00 0.05 0.03 55 1013.7
20260507084030 17 214 4.8 9.7 0.00 0.05 0.03 57 1013.8
20260507083026 16 241 1.6 9.7 0.00 0.05 0.03 60 1013.8
20260507082041 16 240 4.8 9.7 0.00 0.05 0.03 61 1013.7
20260507081017 16 203 3.2 8.0 0.00 0.05 0.03 61 1013.8
20260507080113 16 203 1.6 4.8 0.00 0.05 0.03 63 1014.0
20260507075108 16 203 1.6 6.4 0.00 0.05 0.03 63 1013.8
20260507074104 16 203 3.2 4.8 0.00 0.05 0.03 67 1013.9
20260507073120 15 203 1.6 3.2 0.00 0.05 0.03 70 1013.8
20260507072056 15 203 1.6 4.8 0.00 0.05 0.03 71 1013.9
20260507071052 15 225 0.0 4.8 0.00 0.05 0.03 73 1014.0
20260507070047 14 225 1.6 3.2 0.00 0.05 0.03 76 1013.8
20260507065043 13 225 3.2 6.4 0.00 0.05 0.03 80 1013.9
20260507064038 13 225 1.6 3.2 0.00 0.05 0.03 82 1013.8
20260507063035 12 253 1.6 3.2 0.00 0.05 0.03 85 1013.9
20260507062030 12 270 3.2 4.8 0.00 0.05 0.03 87 1013.6
20260507061026 12 270 1.6 3.2 0.00 0.05 0.03 90 1013.6
20260507060022 12 0.0 1.6 0.00 0.05 0.03 93 1013.7
20260507055018 11 0.0 3.2 0.00 0.05 0.03 92 1013.6
20260507054134 11 0.0 0.0 0.00 0.05 0.03 92 1013.8
20260507053109 11 248 0.0 3.2 0.00 0.05 0.03 92 1013.7
20260507052105 11 0.0 0.0 0.00 0.05 0.03 92 1013.6
20260507051101 11 240 1.6 3.2 0.00 0.05 0.03 92 1013.6
20260507050056 11 0.0 1.6 0.00 0.05 0.03 91 1013.5
20260507045052 11 270 0.0 3.2 0.00 0.05 0.03 91 1013.5
20260507044048 11 270 1.6 3.2 0.00 0.05 0.03 91 1013.4
20260507043044 11 0.0 0.0 0.00 0.05 0.03 91 1013.2
20260507042120 11 0.0 0.0 0.00 0.05 0.03 90 1013.2
20260507041055 11 0.0 0.0 0.00 0.05 0.03 90 1013.2
20260507040031 11 255 0.0 3.2 0.00 0.05 0.03 90 1013.2
20260507035027 11 0.0 1.6 0.00 0.05 0.03 89 1013.0
20260507034023 11 270 0.0 3.2 0.00 0.05 0.03 88 1013.2
20260507033038 11 0.0 0.0 0.00 0.05 0.03 88 1013.1
20260507032115 11 270 0.0 1.6 0.00 0.10 0.03 87 1013.2
20260507031111 11 270 1.6 4.8 0.00 0.10 0.03 87 1013.1
20260507030106 11 0.0 1.6 0.00 0.10 0.03 86 1013.1
20260507025102 11 270 1.6 3.2 0.00 0.18 0.03 87 1013.1
20260507024058 11 264 1.6 6.4 0.00 0.20 0.03 88 1013.1
20260507023054 11 248 1.6 6.4 0.00 0.20 0.03 89 1013.0
20260507022049 11 248 0.0 3.2 0.00 0.20 0.03 90 1012.8
20260507021124 11 248 4.8 6.4 0.00 0.20 0.03 91 1012.7
20260507020040 11 241 0.0 3.2 0.00 0.20 0.03 91 1012.7
20260507015036 11 225 0.0 3.2 0.00 0.20 0.03 91 1012.5
20260507014032 11 248 1.6 3.2 0.00 0.20 0.03 91 1012.6
20260507013028 11 0.0 0.0 0.00 0.20 0.03 91 1012.5
20260507012023 11 0.0 1.6 0.00 0.20 0.03 91 1012.6
20260507011020 11 0.0 0.0 0.00 0.20 0.03 91 1012.5
20260507010015 11 0.0 0.0 0.00 0.20 0.03 91 1012.5
20260507005111 11 0.0 0.0 0.00 0.20 0.03 90 1012.5
20260507004107 11 0.0 0.0 0.00 0.20 0.03 90 1012.5
20260507003103 11 0.0 0.0 0.00 0.20 0.03 90 1012.5
20260507002118 11 0.0 0.0 0.00 0.20 0.03 90 1012.6
20260507001054 11 0.0 1.6 0.00 0.20 0.03 90 1012.8
20260507000110 11 0.0 3.2 0.00 0.20 0.03 90 1012.9
20260506235046 11 231 3.2 6.4 0.00 0.20 0.03 90 1013.0
20260506234041 11 0.0 0.0 0.00 0.20 0.03 89 1013.0
20260506233037 11 0.0 1.6 0.00 0.20 0.03 88 1013.0
20260506232032 11 225 3.2 6.4 0.03 0.20 0.03 87 1013.2
20260506231028 11 225 0.0 3.2 0.03 0.20 0.03 86 1013.1